Weather History for Provincetown, MA

Change the Weather History Date:

Wednesday, May 1, 2013

  Actual Average Record
Temperature  
Mean Temperature 47 °F -  
Max Temperature 59 °F 57 °F 73 °F (2001)
Min Temperature 35 °F 43 °F 30 °F (1999)
Degree Days  
Heating Degree Days 18    
Moisture  
Dew Point 41 °F    
Average Humidity 78    
Maximum Humidity 93    
Minimum Humidity 55    
Precipitation  
Precipitation 0.00 in - - ()
Sea Level Pressure  
Sea Level Pressure 30.47 in    
Wind  
Wind Speed 3 mph (ENE)    
Max Wind Speed 12 mph    
Max Gust Speed -    
Visibility 10 miles    
Events      
Averages and records for this station are not official NWS values.
T = Trace of Precipitation, MM = Missing Value Source: NWS Daily Summary

Daily Weather History Graph

Daily Weather History Graph

Search for Another Location

Airport:

Trip Planner

Search our weather history database for the weather conditions in past years. The results will help you decide how hot, cold, wet, or windy it might be!

Date:

Astronomy

May. 01, 2013 Rise Set
Actual Time 5:36 AM EDT 7:40 PM EDT
Civil Twilight 5:05 AM EDT 8:10 PM EDT
Nautical Twilight 4:28 AM EDT 8:48 PM EDT
Astronomical Twilight 3:47 AM EDT 9:29 PM EDT
Moon 12:47 AM EDT (5/1) 11:10 AM EDT (5/1)
Length of Visible Light 15h 04m
Length of Day
14h 03m
Waning Gibbous, 59% of the Moon is Illuminated
May 1
Waning Gibbous
May 2
Last Quarter
May 9
New
May 18
First Quarter
May 25
Full

Hourly Weather History & Observations

Time (EDT) Temp. Windchill Dew Point Humidity Pressure Visibility Wind Dir Wind Speed Gust Speed Precip Events Conditions
12:35 AM 41.0 °F - 32.0 °F 70% 30.39 in 10.0 mi Calm Calm - N/A   Clear
1:15 AM 39.2 °F - 35.6 °F 87% 30.40 in 10.0 mi Calm Calm - N/A   Clear
1:35 AM 37.4 °F - 32.0 °F 81% 30.40 in 10.0 mi Calm Calm - N/A   Clear
1:55 AM 37.4 °F - 33.8 °F 87% 30.40 in 10.0 mi Calm Calm - N/A   Clear
2:15 AM 37.4 °F - 32.0 °F 81% 30.40 in 10.0 mi Calm Calm - N/A   Clear
2:35 AM 35.6 °F - 32.0 °F 87% 30.40 in 10.0 mi Calm Calm - N/A   Clear
3:15 AM 37.4 °F - 33.8 °F 87% 30.40 in 10.0 mi Calm Calm - N/A   Clear
3:35 AM 35.6 °F - 30.2 °F 81% 30.40 in 10.0 mi Calm Calm - N/A   Clear
4:15 AM 35.6 °F - 33.8 °F 93% 30.41 in 10.0 mi Calm Calm - N/A   Clear
4:35 AM 35.6 °F - 33.8 °F 93% 30.41 in 10.0 mi Calm Calm - N/A   Clear
4:55 AM 37.4 °F - 35.6 °F 93% 30.41 in 7.0 mi Calm Calm - N/A   Clear
5:35 AM 35.6 °F - 33.8 °F 93% 30.43 in 10.0 mi Calm Calm - N/A   Clear
5:55 AM 35.6 °F 31.7 °F 30.2 °F 81% 30.44 in 0.5 mi NE 4.6 mph - N/A   Unknown
6:15 AM 39.2 °F 35.9 °F 37.4 °F 93% 30.45 in 6.0 mi NE 4.6 mph - N/A   Clear
6:35 AM 46.4 °F 42.9 °F 44.6 °F 93% 30.45 in 10.0 mi NE 6.9 mph - N/A   Clear
6:55 AM 46.4 °F 43.5 °F 44.6 °F 93% 30.46 in 10.0 mi ENE 5.8 mph - N/A   Clear
7:15 AM 48.2 °F - 44.6 °F 87% 30.47 in 10.0 mi NNE 5.8 mph - N/A   Clear
7:55 AM 50.0 °F - 44.6 °F 82% 30.47 in 10.0 mi NE 6.9 mph - N/A   Clear
8:15 AM 50.0 °F - 44.6 °F 82% 30.47 in 10.0 mi NE 6.9 mph - N/A   Clear
8:35 AM 50.0 °F - 44.6 °F 82% 30.48 in 10.0 mi NE 8.1 mph - N/A   Clear
8:55 AM 51.8 °F - 44.6 °F 76% 30.47 in 10.0 mi ENE 6.9 mph - N/A   Clear
9:15 AM 51.8 °F - 42.8 °F 71% 30.48 in 10.0 mi NE 5.8 mph - N/A   Clear
9:35 AM 51.8 °F - 44.6 °F 76% 30.49 in 10.0 mi NE 8.1 mph - N/A   Clear
9:55 AM 51.8 °F - 44.6 °F 76% 30.49 in 10.0 mi NE 9.2 mph - N/A   Clear
10:35 AM 53.6 °F - 42.8 °F 67% 30.50 in 10.0 mi ENE 9.2 mph - N/A   Clear
10:55 AM 55.4 °F - 44.6 °F 67% 30.51 in 10.0 mi ENE 10.4 mph - N/A   Clear
11:15 AM 55.4 °F - 44.6 °F 67% 30.51 in 10.0 mi East 10.4 mph - N/A   Clear
11:35 AM 55.4 °F - 42.8 °F 63% 30.51 in 10.0 mi NE 11.5 mph - N/A   Clear
11:55 AM 55.4 °F - 44.6 °F 67% 30.50 in 10.0 mi ENE 10.4 mph - N/A   Clear
12:15 PM 55.4 °F - 44.6 °F 67% 30.50 in 10.0 mi ENE 8.1 mph - N/A   Clear
12:35 PM 55.4 °F - 44.6 °F 67% 30.50 in 10.0 mi ENE 10.4 mph - N/A   Clear
1:15 PM 57.2 °F - 44.6 °F 63% 30.50 in 10.0 mi ENE 9.2 mph - N/A   Clear
1:35 PM 57.2 °F - 42.8 °F 59% 30.49 in 10.0 mi East 9.2 mph - N/A   Clear
1:55 PM 59.0 °F - 42.8 °F 55% 30.49 in 10.0 mi East 9.2 mph - N/A   Clear
2:15 PM 59.0 °F - 42.8 °F 55% 30.49 in 10.0 mi ENE 10.4 mph - N/A   Clear
2:35 PM 57.2 °F - 42.8 °F 59% 30.49 in 10.0 mi ENE 10.4 mph - N/A   Clear
2:55 PM 57.2 °F - 44.6 °F 63% 30.49 in 10.0 mi ENE 9.2 mph - N/A   Clear
3:15 PM 57.2 °F - 44.6 °F 63% 30.49 in 10.0 mi ENE 10.4 mph - N/A   Clear
4:15 PM 57.2 °F - 44.6 °F 63% 30.47 in 10.0 mi SE 5.8 mph - N/A   Clear
4:35 PM 59.0 °F - 42.8 °F 55% 30.48 in 10.0 mi SSW 4.6 mph - N/A   Clear
5:15 PM 55.4 °F - 46.4 °F 72% 30.48 in 10.0 mi North 4.6 mph - N/A   Clear
5:35 PM 53.6 °F - 46.4 °F 77% 30.48 in 10.0 mi NNE 5.8 mph - N/A   Clear
5:55 PM 53.6 °F - 46.4 °F 77% 30.48 in 10.0 mi NNE 4.6 mph - N/A   Clear
6:15 PM 51.8 °F - 44.6 °F 76% 30.48 in 10.0 mi Calm Calm - N/A   Clear
6:35 PM 53.6 °F - 46.4 °F 77% 30.48 in 10.0 mi NNE 3.5 mph - N/A   Clear
6:55 PM 51.8 °F - 44.6 °F 76% 30.48 in 10.0 mi Calm Calm - N/A   Clear
7:15 PM 48.2 °F - 44.6 °F 87% 30.48 in 10.0 mi Calm Calm - N/A   Clear
7:35 PM 48.2 °F - 44.6 °F 87% 30.48 in 10.0 mi Calm Calm - N/A   Clear
7:55 PM 48.2 °F - 44.6 °F 87% 30.48 in 10.0 mi Calm Calm - N/A   Clear
8:15 PM 46.4 °F - 42.8 °F 87% 30.48 in 10.0 mi Calm Calm - N/A   Clear
8:35 PM 44.6 °F - 39.2 °F 81% 30.49 in 10.0 mi Calm Calm - N/A   Clear
8:55 PM 44.6 °F - 39.2 °F 81% 30.48 in 10.0 mi Calm Calm - N/A   Clear
9:35 PM 42.8 °F 40.1 °F 39.2 °F 87% 30.48 in 10.0 mi South 4.6 mph - N/A   Clear
9:55 PM 46.4 °F 43.5 °F 44.6 °F 93% 30.49 in 10.0 mi South 5.8 mph - N/A   Clear
11:15 PM 46.4 °F 42.9 °F 44.6 °F 93% 30.47 in 10.0 mi South 6.9 mph - N/A   Clear
11:35 PM 46.4 °F 42.9 °F 44.6 °F 93% 30.48 in 10.0 mi South 6.9 mph - N/A   Clear
11:55 PM 46.4 °F 43.5 °F 44.6 °F 93% 30.47 in 10.0 mi South 5.8 mph - N/A   Clear